{"data":{"norad_id":68062,"epoch":"2026-09-19T15:07:58.728576Z","epoch_age_seconds":134742,"freshness":"FRESH","line1":"1 68062U 26041Y   26262.63054084  .00015393  00000+0  46577-3 0  9995","line2":"2 68062  53.1591 223.9266 0000612  88.4750 271.6323 15.34400448 31156","mean_motion":15.34400448,"eccentricity":6.12e-5,"inclination_deg":53.1591,"raan_deg":223.9266,"arg_perigee_deg":88.475,"mean_anomaly_deg":271.6323,"bstar":0.00046577,"rev_number":3115,"period_min":93.847730680537,"perigee_km":462.28324931581,"apogee_km":463.12056799823,"semimajor_km":6840.838908657,"source":"CELESTRAK","updated_at":"2026-09-20T09:00:43.751501Z"}}